PST,Max TemperatureF,Mean TemperatureF,Min TemperatureF,Max Dew PointF,MeanDew PointF,Min DewpointF,Max Humidity, Mean Humidity, Min Humidity, Max Sea Level PressureIn, Mean Sea Level PressureIn, Min Sea Level PressureIn, Max VisibilityMiles, Mean VisibilityMiles, Min VisibilityMiles, Max Wind SpeedMPH, Mean Wind SpeedMPH, Max Gust SpeedMPH,PrecipitationIn, CloudCover, Events, WindDirDegrees
2013-2-1,74,54,33,43,37,29,89,55,20,30.17,30.14,30.10,10,10,10,25,8,56,0.00,0,,275
2013-2-2,80,61,41,51,41,24,89,51,13,30.19,30.14,30.08,10,10,10,22,2,77,0.00,3,Rain,296
2013-2-3,71,62,53,52,47,41,93,65,37,30.10,30.06,30.00,10,10,7,15,5,22,T,3,Rain,265
2013-2-4,71,53,35,49,43,34,100,70,40,30.08,30.04,29.97,10,7,0,12,3,15,0.00,0,Fog,284
2013-2-5,56,45,33,49,44,32,100,89,77,30.09,30.03,29.98,7,2,0,13,4,,0.00,7,Fog,297
2013-2-6,60,54,48,47,41,34,93,75,57,30.11,30.05,29.99,10,6,0,9,1,14,0.00,4,Fog,246
2013-2-7,62,45,28,49,36,28,100,80,60,30.12,30.08,30.00,10,3,0,13,3,15,0.00,4,Fog-Rain,251
2013-2-8,50,46,41,43,39,36,86,81,76,30.02,29.96,29.89,10,9,3,21,8,28,0.14,7,Rain,257
2013-2-9,53,42,30,40,35,28,100,80,59,30.11,30.00,29.92,10,6,0,14,3,17,0.00,3,Fog,262
2013-2-10,50,42,34,41,37,33,100,86,71,30.10,30.06,30.01,10,6,0,13,3,15,0.04,6,Fog-Rain,255
2013-2-11,58,44,29,41,33,28,100,68,35,30.24,30.10,30.04,10,4,0,14,2,17,0.00,4,Fog,231
2013-2-12,60,42,23,37,26,17,92,56,20,30.34,30.27,30.22,10,9,4,26,2,26,0.00,0,,284
2013-2-13,66,46,25,42,31,22,92,56,20,30.26,30.20,30.14,10,9,5,13,3,15,0.00,0,,290
2013-2-14,73,51,28,44,35,27,96,63,29,30.18,30.12,30.05,10,8,2,13,4,16,0.00,0,,300
2013-2-15,75,59,43,29,20,13,53,32,11,30.17,30.14,30.11,10,10,10,23,10,31,0.00,0,,74
2013-2-16,80,59,37,31,24,12,54,31,8,30.14,30.07,29.99,10,10,10,18,8,23,0.00,0,,64
2013-2-17,67,48,29,45,36,23,82,52,21,30.03,29.99,29.94,10,7,0,14,4,21,0.00,2,Fog,190
2013-2-18,63,53,42,46,42,39,100,76,51,30.06,30.01,29.96,10,7,2,14,3,17,0.00,5,,292
2013-2-19,50,48,45,43,40,38,83,72,61,29.98,29.85,29.72,10,8,2,16,6,21,0.01,8,Rain,223
2013-2-20,52,46,39,41,35,27,96,69,42,30.02,29.81,29.70,10,10,5,21,12,29,0.17,4,Rain,278
2013-2-21,52,41,30,42,34,28,92,79,66,30.10,30.04,29.98,10,7,0,14,4,16,0.07,4,Fog-Rain,148
2013-2-22,62,44,26,35,30,26,100,64,27,30.19,30.13,30.09,10,6,0,16,4,25,0.00,0,Fog,276
2013-2-23,63,46,29,42,33,24,92,59,25,30.15,30.04,29.94,10,8,2,12,3,15,0.00,1,,250
2013-2-24,64,47,30,34,18,5,92,51,10,30.21,30.07,29.97,10,10,5,22,8,28,0.00,0,,61
2013-2-25,66,45,24,26,20,11,75,45,14,30.22,30.15,30.09,10,10,9,25,3,31,0.00,0,,275
2013-2-26,73,48,23,29,20,13,88,50,12,30.10,30.03,29.97,10,10,10,18,4,22,0.00,0,,67
2013-2-27,71,59,46,29,17,10,24,18,11,30.27,30.18,30.10,10,10,10,16,10,22,0.00,0,,68
2013-2-28,75,54,32,26,17,9,56,33,9,30.32,30.27,30.23,10,10,10,23,10,29,0.00,0,,76